Regional Weather Roundup
Issued by NWS Charleston, SC

Home | Current Version | Previous Version | Text Only | Print | Product List | Glossary On
Versions: 1 2 3 4 5 6 7 8 9 10 11 12 13 14 15 16 17 18 19 20 21 22 23 24 25 26 27 28 29 30 31 32 33 34 35 36 37 38 39 40 41 42 43 44 45 46 47 48 49 50
000
ASUS42 KCHS 121311
RWRCHS

REGIONAL WEATHER ROUNDUP
NATIONAL WEATHER SERVICE CHARLESTON SC
800 AM EST TUE DEC 12 2017

NOTE: "FAIR" INDICATES FEW OR NO CLOUDS BELOW 12,000 FEET WITH NO
SIGNIFICANT WEATHER AND/OR OBSTRUCTIONS TO VISIBILITY.

NOT ALL STATIONS ARE QUALITY CONTROLLED. USE DATA WITH CAUTION...
ESPECIALLY DEWPOINT OBSERVATIONS.

SCZ027-030-031-034>040-042>050-121400-
...SOUTHEAST SOUTH CAROLINA...

CITY           SKY/WX    TMP DP  RH WIND       PRES   REMARKS
N CHARLESTON   CLEAR     46  40  79 SW8       29.86F
WATERFRONT PRK   N/A     48  42  80 SW5       29.72F
JOHNS ISLAND   FAIR      48  41  76 SW7       29.87F
PINOPOLIS        N/A     45  39  81 SW14      29.77F
MONCKS CORNER  FAIR      45  36  70 SW10      29.85S
SUMMERVILLE    FAIR      41  37  87 S5        29.86F
BEAUFORT MCAS    N/A     46  42  86 SW9       29.88F
BEAUFORT ARPT  FAIR      46  41  81 SW5       29.87F
HILTON HEAD IS CLEAR     48  41  76 SW12      29.88F
WALTERBORO     SUNNY     41  37  87 SW5       29.87S
ALLENDALE      FAIR      39  37  93 CALM      29.85S

...SOUTHERN MIDLANDS AND PEE DEE...

CITY           SKY/WX    TMP DP  RH WIND       PRES   REMARKS
GEORGETOWN     FAIR      45  39  81 SW6       29.85F
KINGSTREE      FAIR      43  36  75 S5        29.82F
ORANGEBURG     PTCLDY    42  36  79 SW8       29.82F
BARNWELL         N/A     41  37  87 SW3       29.84F
AIKEN          FAIR      41  36  81 SW6       29.83F
MANNING        FAIR      45  32  61 MISG      29.82F
COLUMBIA       CLOUDY    43  38  82 SW5       29.79F
SUMTER         PTCLDY    46  36  68 SW13      29.76F
FLORENCE       PTCLDY    44  37  76 SW10      29.79F
MYRTLE BEACH   CLEAR     49  37  63 SW8       29.84F
N MYRTLE BEACH CLEAR     49  37  63 SW12      29.82F

$$

GAZ063-065-086>088-099>101-113>116-118-119-134>141-150-121400-
...SOUTHEAST GEORGIA...

CITY           SKY/WX    TMP DP  RH WIND       PRES   REMARKS
SAVANNAH ARPT  NOT AVBL
HUNTER AAF     CLEAR     46  42  86 SW6       29.87F
FORT STEWART   PTCLDY    44  40  88 SW3       29.88F
STATESBORO     CLEAR     44  38  79 SW6       29.88S
SYLVANIA       SUNNY     43  41  93 CALM      29.88S
CLAXTON        FAIR      46  42  87 SW3       29.89S

...CSRA...CENTRAL AND FAR SOUTHEAST GEORGIA...

CITY           SKY/WX    TMP DP  RH WIND       PRES   REMARKS
THOMSON        PTCLDY    42  37  82 W7        29.87F
AUGUSTA-BUSH   PTCLDY    45  37  73 SW9       29.83S
AUGUSTA-DANIEL PTCLDY    46  37  71 SW6       29.82F
SWAINSBORO     FAIR      41  41 100 NW3       29.88F
VIDALIA        CLEAR     43  41  93 SW7       29.89S
EASTMAN        FAIR      43  35  73 CALM      29.93R
HAZLEHURST     FAIR      46  39  75 SW7       29.90R
ALMA           CLEAR     44  42  93 SW5       29.92S
WAYCROSS       CLEAR     47  45  90 SW8       29.93F
JESUP          NOT AVBL
BAXLEY         FAIR      41  41 100 SW5       29.91R
BRUNSWICK      CLEAR     46  43  87 SW8       29.95S
SAINT SIMONS   CLEAR     49  47  93 SW12      29.94F

$$

SCZ027-028-034-036>038-045-046-048>050-GAZ119-141-121400-
...LAKE AND SUPPLEMENTAL COASTAL OBSERVATIONS...

STATION/POSITION TIME  TEMP    WIND        PRES    WAVE   SWELL
                       AIR SEA DIR/SP/G            HT/PER HT/PER/DIR
                 (UTC) (F)     (DEG/KT/KT) (MB)    (FT/S) (FT/S/D)
WINYAH BAY       1145   47     240/  7     1011.0
LAKE MURRAY      1220   48     250/ 11/ 14 1007.8
ACE BASIN NERRS  1145   44        CALM     1012.0
FORT PULASKI     1248   48 55  200/  4/  7 1012.4F
SAPELO ISLAND    NOT AVBL

$$

ANZ835-935-AMZ111-154-330-350-352-354-370-450-454-472-121400-
...C-MAN AND BUOY OBSERVATIONS...

STATION/POSITION TIME  TEMP    WIND        PRES    WAVE   SWELL
                       AIR SEA DIR/SP/G            HT/PER HT/PER/DIR
                 (UTC) (F)     (DEG/KT/KT) (MB)    (FT/S) (FT/S/D)
BUOY 41004       1250      74  250/ 19/ 25 1011.5F   6/ 7   2/120/ 9
BUOY 41008       1150   57 61  230/ 19/ 23 1013.4    3/ 5
FOLLY BEACH CMAN 1200   49     230/  8/ 10 1012.5F
CAPERS NEARSHORE 1208   50 57  250/ 17/ 25 1011.3F
FRIPP NEARSHORE  1208   50 56  230/ 19/ 27 1011.5F


STATION/POSITION TIME  TEMP    WIND        PRES    WAVE   SWELL
                       AIR SEA DIR/SP/G            HT/PER HT/PER/DIR
                 (UTC) (F)     (DEG/KT/KT) (MB)    (FT/S) (FT/S/D)
5E ST. MARYS GA  1230      60                N/A     2/ 3
FRYING PAN BUOY  1250   62 65  250/ 21/ 27 1010.4F   7/ 7
BUOY 41025       1250   63 74  230/ 23/ 31 1008.9F   6/ 6   2/140/ 8
CAPE LOOKOUT NC  1200          230/ 12/ 16 1009.8F
BUOY 41002       1150   69 75  230/ 19/ 23 1013.6    5/ 5   2/ 40/10
BUOY 41010       NOT AVBL
ST AUGUSTINE FL  1200   46 61  220/  7/  9 1016.5F


$$




USA.gov is the U.S. government's official web portal to all federal, state and local government web resources and services.